AirNav   Everest Fuels
 
 1687 users online  

SC26 Hawks Nest Farm Airport
West Union, South Carolina, USA

GOING TO WEST UNION?


FAA INFORMATION EFFECTIVE 11 AUGUST 2022

Location

FAA Identifier: SC26
Lat/Long: 34-48-29.0000N 082-59-55.0000W
34-48.483333N 082-59.916667W
34.8080556,-82.9986111
(estimated)
Elevation: 1050 ft. / 320 m (estimated)
Variation: 04W (1995)
From city: 4 miles NE of WEST UNION, SC
Time zone: UTC -4 (UTC -5 during Standard Time)
Zip code: 29696

Airport Operations

Airport use: Private use. Permission required prior to landing
Activation date: 09/1996
Control tower: no
ARTCC: ATLANTA CENTER
FSS: ANDERSON FLIGHT SERVICE STATION
Attendance: IREG
Wind indicator: yes
Segmented circle: no

Airport Communications

WX ASOS at CEU (10 nm SE): 119.275 (864-653-8855)
WX AWOS-3 at LQK (15 nm E): 120.0 (864-843-5801)
WX AWOS-3 at TOC (20 nm SW): 119.625 (706-297-7473)

Nearby radio navigation aids

VOR radial/distance  VOR name  Freq  Var
ODFr065/16.2FOOTHILLS VOR/DME113.4000E
ELWr336/25.6ELECTRIC CITY VORTAC108.6000E

 
NDB name  Hdg/Dist  Freq  Var  ID
BROAD RIVER230/38.137907WBRA -... .-. .-

Airport Services

Runway Information

Runway 3/21

Dimensions: 1800 x 100 ft. / 549 x 30 m
Surface: turf
RUNWAY 3  RUNWAY 21
Traffic pattern: leftleft

Airport Ownership and Management from official FAA records

Ownership: Privately-owned
Owner: DAN T SUDDETH
213 BURNT TANYARD ROAD
WEST UNION, SC 29696
Phone 864-903-1017
Manager: DAN T. SUDDETH
213 BURNT TANYARD ROAD
WEST UNION, SC 29696
Phone 864-903-1017

Airport Operational Statistics

Aircraft based on the field: 2
Single engine airplanes: 1
Helicopters: 1
    

Additional Remarks

FOR CD CTC ATLANTA ARTCC AT 770-210-7692.

Instrument Procedures

There are no published instrument procedures at SC26.

Some nearby airports with instrument procedures:

KCEU - Oconee County Regional Airport (10 nm SE)
KLQK - Pickens County Airport (15 nm E)
KTOC - Toccoa Airport-RG Letourneau Field (20 nm SW)
KAND - Anderson Regional Airport (24 nm SE)
18A - Franklin-Hart Airport (29 nm S)
 
Loc | Ops | Rwys | IFR | FBO | Links
Com | Nav | Svcs | Stats | Notes
Area around SC26 (Hawks Nest Farm Airport)
 
Road maps at: MapQuest Bing Google
 
Aerial photo
No photo
 
Sectional chart

 
Airport distance calculator
Flying to Hawks Nest Farm Airport? Find the distance to fly.

From to SC26

Sunrise and sunset
Times for 19-Aug-2022
 Local
(UTC-4)
 Zulu
(UTC)
Morning civil twilight06:3010:30
Sunrise06:5610:56
Sunset20:1500:15
Evening civil twilight20:4100:41

Current date and time
Zulu (UTC)  19-Aug-2022 15:50:03
Local (UTC-4)  19-Aug-2022 11:50:03
 
METAR
KCEU 
10nm SE 
191502Z AUTO 10004KT 10SM FEW023 BKN037 OVC055 23/21 A3008 RMK AO2 T02330206
KLQK 
15nm E 
191535Z AUTO 08003KT 10SM SCT020 BKN040 OVC065 25/21 A3008 RMK AO2 T02460208
KTOC 
20nm SW 
191535Z AUTO 08006KT 10SM SCT016 SCT028 BKN120 25/21 A3009 RMK AO2 T02460206
TAF
KAND 
23nm SE 
191125Z 1912/2012 06006KT P6SM VCSH OVC010 FM191400 07006KT P6SM VCSH OVC015 FM191800 09007KT P6SM -SHRA OVC025 FM200300 07004KT P6SM BKN015 FM200600 VRB02KT 5SM BR BKN007
NOTAMs
Click for the latest NOTAMs
NOTAMs are issued by the DoD/FAA and will open in a separate window not controlled by AirNav.

 

 
 

Would you like to see your business listed on this page?

 If your business provides an interesting product or service to pilots, flight crews, aircraft, or users of the Hawks Nest Farm Airport, you should consider listing it here.  To start the listing process, click on the button below
 
Add a business
 

Other Pages about Hawks Nest Farm Airport

Update a link
 
Copyright © AirNav, LLC. All rights reserved. Privacy Policy  Contact